Location: Kings Park
(40.8862°N, 73.2573°W)
Time: 06:06:34
(UTC+00:00)

Cosmos 1992 Rocket - Pass Details

Date: 29 October 2020
Orbit: 759 x 765 km, 74.0° (Epoch: 27 November)

Event Time Altitude Azimuth Distance (km) Brightness Sun altitude
Rises 22:30:21 0° 176° (S) 3,203 7.3 -7.8°
Reaches altitude 10° 22:32:50 10° 168° (SSE) 2,282 6.5 -8.3°
Maximum altitude 22:37:35 38° 102° (ESE) 1,152 4.5 -9.2°
Drops below altitude 10° 22:42:21 10° 35° (NE) 2,296 6.1 -10.1°
Sets 22:44:51 0° 28° (NNE) 3,225 6.9 -10.5°
